TimeAWST,TemperatureF,Dew PointF,Humidity,Sea Level PressureIn,VisibilityMPH,Wind Direction,Wind SpeedMPH,Gust SpeedMPH,PrecipitationIn,Events,Conditions,WindDirDegrees,DateUTC
12:00 AM,50,46,80,30.06,12,NNE,5.8,,,,Partly Cloudy,20,2013-06-04 16:00:00
12:00 AM,50.0,46.4,87,30.06,6.2,NNE,5.8,-,N/A,,Scattered Clouds,20,2013-06-04 16:00:00
12:30 AM,50.0,46.4,87,30.04,6.2,NNE,6.9,-,N/A,,Mostly Cloudy,20,2013-06-04 16:30:00
1:00 AM,50.0,46.4,87,30.04,6.2,NNE,4.6,-,N/A,,Scattered Clouds,20,2013-06-04 17:00:00
1:30 AM,50.0,46.4,87,30.04,6.2,NNE,5.8,-,N/A,,Mostly Cloudy,20,2013-06-04 17:30:00
2:00 AM,50,46,81,30.04,,NNE,5.8,,,,,30,2013-06-04 18:00:00
2:00 AM,50.0,46.4,87,30.04,6.2,NNE,5.8,-,N/A,,Partly Cloudy,30,2013-06-04 18:00:00
2:30 AM,50.0,46.4,87,30.04,6.2,NE,5.8,-,N/A,,Mostly Cloudy,40,2013-06-04 18:30:00
3:00 AM,51,46,78,30.04,12,North,5.8,,,,Partly Cloudy,10,2013-06-04 19:00:00
3:00 AM,51.8,46.4,82,30.04,6.2,North,5.8,-,N/A,,Mostly Cloudy,10,2013-06-04 19:00:00
3:30 AM,51.8,48.2,88,30.04,3.7,North,4.6,-,N/A,Rain,Light Rain Showers,10,2013-06-04 19:30:00
3:44 AM,51.8,48.2,88,30.04,6.2,ENE,6.9,-,N/A,Rain,Light Rain Showers,60,2013-06-04 19:44:00
4:00 AM,51.8,48.2,88,30.04,3.7,NE,6.9,-,N/A,Rain,Light Rain Showers,50,2013-06-04 20:00:00
4:22 AM,51.8,50.0,94,30.01,5.6,NE,8.1,-,N/A,Rain,Light Rain Showers,40,2013-06-04 20:22:00
4:30 AM,51.8,50.0,94,30.01,5.0,NE,8.1,-,N/A,Rain,Light Rain Showers,40,2013-06-04 20:30:00
4:37 AM,51.8,50.0,94,30.01,6.2,ENE,6.9,-,N/A,,Mostly Cloudy,60,2013-06-04 20:37:00
5:00 AM,52,50,89,30.04,,ENE,5.8,,,,,70,2013-06-04 21:00:00
5:00 AM,51.8,50.0,94,30.04,6.2,ENE,5.8,-,N/A,,Mostly Cloudy,70,2013-06-04 21:00:00
5:30 AM,51.8,50.0,94,30.04,6.2,NNE,5.8,-,N/A,,Mostly Cloudy,30,2013-06-04 21:30:00
6:00 AM,51,50,94,30.06,16,NNE,4.6,,,,Partly Cloudy,30,2013-06-04 22:00:00
6:00 AM,51.8,50.0,94,30.04,6.2,NNE,4.6,-,N/A,,Mostly Cloudy,30,2013-06-04 22:00:00
6:30 AM,50.0,50.0,100,30.06,6.2,ENE,4.6,-,N/A,,Scattered Clouds,70,2013-06-04 22:30:00
7:00 AM,48.2,48.2,100,30.06,6.2,Calm,Calm,-,N/A,,Partly Cloudy,0,2013-06-04 23:00:00
7:30 AM,48.2,48.2,100,30.09,6.2,Calm,Calm,-,N/A,,Partly Cloudy,0,2013-06-04 23:30:00
8:00 AM,49,48,95,30.10,,NNE,3.5,,,,,30,2013-06-05 00:00:00
8:00 AM,50.0,48.2,94,30.09,6.2,NNE,3.5,-,N/A,,Partly Cloudy,30,2013-06-05 00:00:00
8:30 AM,53.6,51.8,94,30.09,6.2,Calm,Calm,-,N/A,,Partly Cloudy,0,2013-06-05 00:30:00
9:00 AM,57,53,82,30.11,12,NNE,2.3,,,,Partly Cloudy,30,2013-06-05 01:00:00
9:00 AM,57.2,53.6,88,30.09,6.2,NNE,2.3,-,N/A,,Partly Cloudy,30,2013-06-05 01:00:00
9:30 AM,59.0,53.6,82,30.09,6.2,NNE,5.8,-,N/A,,Partly Cloudy,30,2013-06-05 01:30:00
10:00 AM,62.6,51.8,68,30.09,6.2,North,4.6,-,N/A,,Partly Cloudy,10,2013-06-05 02:00:00
10:30 AM,62.6,51.8,68,30.09,6.2,South,2.3,-,N/A,,Partly Cloudy,170,2013-06-05 02:30:00
11:00 AM,64,49,48,30.11,,South,5.8,,,,,170,2013-06-05 03:00:00
11:00 AM,64.4,48.2,56,30.09,6.2,South,5.8,-,N/A,,Partly Cloudy,170,2013-06-05 03:00:00
11:30 AM,64.4,46.4,52,30.09,6.2,South,5.8,-,N/A,,Partly Cloudy,190,2013-06-05 03:30:00
12:00 PM,64.4,46.4,52,30.06,6.2,SSW,11.5,-,N/A,,Partly Cloudy,200,2013-06-05 04:00:00
12:30 PM,66.2,48.2,52,30.06,6.2,SW,11.5,-,N/A,,Mostly Cloudy,220,2013-06-05 04:30:00
1:00 PM,64.4,46.4,52,30.06,6.2,SSW,10.4,-,N/A,,Mostly Cloudy,210,2013-06-05 05:00:00
1:30 PM,64.4,46.4,52,30.06,-9999.0,SW,13.8,-,N/A,,Clear,220,2013-06-05 05:30:00
2:00 PM,65,46,38,30.07,,WSW,12.7,,,,,250,2013-06-05 06:00:00
2:00 PM,66.2,46.4,49,30.06,-9999.0,WSW,12.7,-,N/A,,Clear,250,2013-06-05 06:00:00
2:30 PM,64.4,46.4,52,30.06,6.2,West,11.5,-,N/A,,Mostly Cloudy,260,2013-06-05 06:30:00
3:00 PM,64,48,45,30.07,19,SW,12.7,,,,Partly Cloudy,230,2013-06-05 07:00:00
3:00 PM,64.4,48.2,56,30.06,6.2,SW,12.7,-,N/A,,Mostly Cloudy,220,2013-06-05 07:00:00
3:30 PM,62.6,50.0,63,30.06,6.2,West,9.2,-,N/A,,Mostly Cloudy,260,2013-06-05 07:30:00
4:00 PM,62.6,50.0,63,30.06,6.2,WSW,8.1,-,N/A,,Mostly Cloudy,250,2013-06-05 08:00:00
4:30 PM,62.6,50.0,63,30.06,6.2,SSW,11.5,-,N/A,Rain,Light Rain Showers,210,2013-06-05 08:30:00
5:00 PM,61,52,65,30.09,,SSW,11.5,,,,,200,2013-06-05 09:00:00
5:00 PM,60.8,51.8,72,30.06,6.2,SSW,11.5,-,N/A,Rain,Light Rain Showers,200,2013-06-05 09:00:00
5:30 PM,60.8,53.6,77,30.06,6.2,South,6.9,-,N/A,,Mostly Cloudy,180,2013-06-05 09:30:00
6:00 PM,60,54,74,30.09,19,SSW,4.6,,,,Partly Cloudy,200,2013-06-05 10:00:00
6:00 PM,60.8,53.6,77,30.06,6.2,SSW,4.6,-,N/A,,Mostly Cloudy,200,2013-06-05 10:00:00
6:30 PM,60.8,53.6,77,30.09,6.2,SW,4.6,-,N/A,,Mostly Cloudy,230,2013-06-05 10:30:00
7:00 PM,59.0,51.8,77,30.09,6.2,SW,5.8,-,N/A,,Mostly Cloudy,230,2013-06-05 11:00:00
7:30 PM,62.6,48.2,59,30.09,6.2,West,5.8,-,N/A,,Mostly Cloudy,260,2013-06-05 11:30:00
8:00 PM,63,48,47,30.12,,WSW,10.4,,,,,240,2013-06-05 12:00:00
8:00 PM,62.6,48.2,59,30.09,6.2,WSW,10.4,-,N/A,,Overcast,240,2013-06-05 12:00:00
8:30 PM,62.6,50.0,63,30.09,6.2,WSW,8.1,-,N/A,,Mostly Cloudy,250,2013-06-05 12:30:00
9:00 PM,63,51,55,30.13,19,WSW,8.1,,,,Partly Cloudy,250,2013-06-05 13:00:00
9:00 PM,62.6,50.0,63,30.12,6.2,WSW,8.1,-,N/A,,Mostly Cloudy,250,2013-06-05 13:00:00
9:11 PM,62.6,50.0,63,30.12,6.2,SW,17.3,-,N/A,,Mostly Cloudy,220,2013-06-05 13:11:00
9:30 PM,59.0,53.6,82,30.12,6.2,WSW,8.1,-,N/A,,Mostly Cloudy,250,2013-06-05 13:30:00
10:00 PM,59.0,53.6,82,30.12,5.6,SW,15.0,-,N/A,Rain,Light Rain Showers,220,2013-06-05 14:00:00
10:30 PM,59.0,53.6,82,30.12,6.2,West,5.8,-,N/A,,Mostly Cloudy,260,2013-06-05 14:30:00
11:00 PM,58,54,83,30.14,,WNW,4.6,,,,,290,2013-06-05 15:00:00
11:00 PM,59.0,53.6,82,30.12,6.2,WNW,4.6,-,N/A,,Overcast,290,2013-06-05 15:00:00
11:30 PM,57.2,53.6,88,30.12,6.2,WSW,5.8,-,N/A,,Overcast,250,2013-06-05 15:30:00